Satellite-Ground Cal/Val Region Overpasses Predictions

Prediction of Satellite NPP Overpassing Cal/Val Region: PacNW

Region Location: (Latitude: 10.00, Longitude: 139.50) to (Latitude: 22.70, Longitude: 165.60).

Table of predicted overpasses for the next 14.0 days since TLE Epoch: 1/25/2019
Interval Starting Time Starting Location Ending Time Ending Location
1 01/26/2019 03:04:55 ( 10.02, 153.45) 01/26/2019 03:08:30 ( 22.64, 150.45)
2 01/26/2019 15:36:48 ( 22.70, 150.68) 01/26/2019 15:40:24 ( 10.02, 147.67)
3 01/27/2019 02:45:53 ( 10.01, 158.21) 01/27/2019 02:49:29 ( 22.69, 155.20)
4 01/27/2019 15:17:47 ( 22.65, 155.43) 01/27/2019 15:21:22 ( 10.03, 152.43)
5 01/28/2019 02:26:52 ( 10.05, 162.96) 01/28/2019 02:30:27 ( 22.67, 159.96)
6 01/28/2019 14:58:44 ( 22.67, 160.19) 01/28/2019 15:02:19 ( 10.05, 157.19)
7 01/29/2019 02:10:24 ( 19.14, 165.59) 01/29/2019 02:11:24 ( 22.66, 164.72)
8 01/29/2019 03:49:19 ( 10.05, 142.34) 01/29/2019 03:52:43 ( 22.02, 139.50)
9 01/29/2019 14:39:42 ( 22.68, 164.96) 01/29/2019 14:43:18 ( 10.00, 161.94)
10 01/29/2019 16:21:12 ( 22.67, 139.58) 01/29/2019 16:21:17 ( 22.38, 139.51)
11 01/30/2019 03:30:17 ( 10.03, 147.11) 01/30/2019 03:33:52 ( 22.65, 144.11)
12 01/30/2019 16:02:09 ( 22.69, 144.34) 01/30/2019 16:05:45 ( 10.01, 141.33)
13 01/31/2019 03:11:14 ( 10.02, 151.87) 01/31/2019 03:14:49 ( 22.64, 148.87)
14 01/31/2019 15:43:08 ( 22.64, 149.09) 01/31/2019 15:46:43 ( 10.02, 146.09)
15 02/01/2019 02:52:12 ( 10.01, 156.63) 02/01/2019 02:55:48 ( 22.69, 153.61)
16 02/01/2019 15:24:05 ( 22.65, 153.85) 02/01/2019 15:27:40 ( 10.03, 150.85)
17 02/02/2019 02:33:10 ( 10.05, 161.38) 02/02/2019 02:36:45 ( 22.68, 158.38)
18 02/02/2019 15:05:03 ( 22.67, 158.61) 02/02/2019 15:08:38 ( 10.05, 155.61)
19 02/03/2019 02:14:48 ( 12.39, 165.60) 02/03/2019 02:17:43 ( 22.66, 163.14)
20 02/03/2019 03:55:38 ( 10.05, 140.76) 02/03/2019 03:57:10 ( 15.45, 139.51)
21 02/03/2019 14:46:00 ( 22.68, 163.37) 02/03/2019 14:49:35 ( 10.06, 160.37)
22 02/04/2019 03:36:35 ( 10.04, 145.52) 02/04/2019 03:40:10 ( 22.66, 142.52)
23 02/04/2019 14:29:59 ( 12.07, 165.59) 02/04/2019 14:30:34 ( 10.01, 165.12)
24 02/04/2019 16:08:28 ( 22.68, 142.76) 02/04/2019 16:12:04 ( 10.00, 139.74)
25 02/05/2019 03:17:33 ( 10.03, 150.29) 02/05/2019 03:21:08 ( 22.65, 147.28)
26 02/05/2019 15:49:26 ( 22.69, 147.52) 02/05/2019 15:53:02 ( 10.02, 144.51)
27 02/06/2019 02:58:30 ( 10.02, 155.05) 02/06/2019 03:02:06 ( 22.70, 152.03)
28 02/06/2019 15:30:24 ( 22.65, 152.27) 02/06/2019 15:33:59 ( 10.03, 149.27)
29 02/07/2019 02:39:28 ( 10.01, 159.81) 02/07/2019 02:43:04 ( 22.69, 156.79)
30 02/07/2019 15:11:22 ( 22.66, 157.03) 02/07/2019 15:14:57 ( 10.04, 154.03)
31 02/08/2019 02:20:26 ( 10.05, 164.56) 02/08/2019 02:24:01 ( 22.68, 161.55)


NCC Satellite Cal/Val Overpasses Prediction Service
